TimePDT,TemperatureF,Dew PointF,Humidity,Sea Level PressureIn,VisibilityMPH,Wind Direction,Wind SpeedMPH,Gust SpeedMPH,PrecipitationIn,Events,Conditions,WindDirDegrees,DateUTC
12:53 AM,39.9,34.0,79,30.51,10.0,Calm,Calm,-,N/A,,Clear,0,2013-03-10 08:53:00
1:53 AM,39.9,34.0,79,30.50,10.0,Calm,Calm,-,N/A,,Clear,0,2013-03-10 09:53:00
3:53 AM,39.9,36.0,86,30.49,10.0,Calm,Calm,-,N/A,,Clear,0,2013-03-10 10:53:00
5:53 AM,39.9,36.0,86,30.50,10.0,Calm,Calm,-,N/A,,Overcast,0,2013-03-10 12:53:00
6:53 AM,39.9,36.0,86,30.49,10.0,Calm,Calm,-,0.01,Rain,Light Rain,0,2013-03-10 13:53:00
7:53 AM,39.9,37.0,89,30.48,9.0,South,3.5,-,0.00,,Overcast,190,2013-03-10 14:53:00
8:53 AM,39.9,37.0,89,30.48,10.0,South,4.6,-,N/A,,Mostly Cloudy,170,2013-03-10 15:53:00
9:53 AM,41.0,37.0,86,30.48,10.0,South,4.6,-,0.00,Rain,Light Rain,180,2013-03-10 16:53:00
10:53 AM,41.0,37.0,86,30.48,8.0,Calm,Calm,-,0.01,Rain,Light Rain,0,2013-03-10 17:53:00
11:53 AM,43.0,39.0,86,30.48,10.0,Calm,Calm,-,0.00,,Overcast,0,2013-03-10 18:53:00
12:53 PM,43.0,37.9,82,30.48,10.0,SSE,3.5,-,0.00,Rain,Light Rain,160,2013-03-10 19:53:00
1:53 PM,43.0,37.9,82,30.47,10.0,South,5.8,-,0.01,,Overcast,170,2013-03-10 20:53:00
2:53 PM,44.1,37.9,79,30.46,10.0,Calm,Calm,-,N/A,,Overcast,0,2013-03-10 21:53:00
3:53 PM,45.0,39.0,80,30.45,10.0,South,3.5,-,N/A,,Overcast,180,2013-03-10 22:53:00
4:53 PM,45.0,37.9,76,30.45,10.0,Calm,Calm,-,N/A,,Overcast,0,2013-03-10 23:53:00
5:53 PM,45.0,37.9,76,30.45,10.0,Calm,Calm,-,N/A,,Overcast,0,2013-03-11 00:53:00
6:53 PM,45.0,39.0,80,30.45,10.0,Calm,Calm,-,N/A,,Overcast,0,2013-03-11 01:53:00
7:53 PM,44.1,39.0,82,30.45,10.0,Calm,Calm,-,N/A,,Overcast,0,2013-03-11 02:53:00
8:27 PM,44.6,39.2,81,30.44,8.0,Calm,Calm,-,N/A,,Overcast,0,2013-03-11 03:27:00
8:53 PM,44.1,39.9,85,30.45,10.0,Calm,Calm,-,N/A,,Overcast,0,2013-03-11 03:53:00
9:02 PM,44.6,39.2,81,30.44,10.0,Calm,Calm,-,N/A,,Overcast,0,2013-03-11 04:02:00
9:53 PM,43.0,39.9,89,30.44,10.0,Calm,Calm,-,N/A,,Overcast,0,2013-03-11 04:53:00
10:53 PM,43.0,39.9,89,30.45,7.0,Calm,Calm,-,N/A,,Overcast,0,2013-03-11 05:53:00
11:18 PM,42.8,41.0,93,30.43,7.0,Calm,Calm,-,N/A,,Overcast,0,2013-03-11 06:18:00
11:53 PM,44.1,41.0,89,30.44,9.0,Calm,Calm,-,N/A,,Overcast,0,2013-03-11 06:53:00
12:53 AM,44.1,41.0,89,30.44,8.0,Calm,Calm,-,N/A,,Overcast,0,2013-03-11 07:53:00